| time (UTC) | temp F | wind direction | speed MPH | gust MPH | rain 1hr in | rain 24hr in | rain mn in | humidity % | barometer mb |
| 20260505204550 | 49 | 23 | 0.0 | 2.0 | 0.00 | 0.89 | 0.89 | 88 | 1012.0 |
| 20260505203036 | 49 | 21 | 1.0 | 4.0 | 0.01 | 0.89 | 0.89 | 86 | 1012.2 |
| 20260505201540 | 50 | 39 | 0.0 | 1.0 | 0.01 | 0.89 | 0.89 | 90 | 1012.1 |
| 20260505200035 | 49 | 0 | 0.0 | 1.0 | 0.01 | 0.89 | 0.89 | 90 | 1012.0 |
| 20260505194536 | 48 | 121 | 0.0 | 1.0 | 0.01 | 0.89 | 0.89 | 88 | 1011.5 |
| 20260505193040 | 48 | 0 | 0.0 | 2.0 | 0.00 | 0.88 | 0.88 | 88 | 1012.0 |
| 20260505191540 | 48 | 0 | 0.0 | 1.0 | 0.00 | 0.88 | 0.88 | 88 | 1012.2 |
| 20260505190037 | 48 | 122 | 0.0 | 3.0 | 0.00 | 0.88 | 0.88 | 88 | 1012.1 |
| 20260505184535 | 48 | 0 | 0.0 | 4.0 | 0.00 | 0.88 | 0.88 | 89 | 1012.2 |
| 20260505183049 | 48 | 0 | 0.0 | 2.0 | 0.00 | 0.88 | 0.88 | 90 | 1012.5 |
| 20260505181541 | 48 | 0 | 0.0 | 3.0 | 0.01 | 0.88 | 0.88 | 90 | 1012.9 |
| 20260505180041 | 48 | 69 | 0.0 | 1.0 | 0.01 | 0.88 | 0.88 | 92 | 1012.9 |
| 20260505174535 | 47 | 19 | 0.0 | 3.0 | 0.02 | 0.88 | 0.88 | 91 | 1013.1 |
| 20260505173035 | 47 | 0 | 0.0 | 6.0 | 0.07 | 0.88 | 0.88 | 92 | 1012.9 |
| 20260505171540 | 47 | 120 | 2.0 | 4.0 | 0.08 | 0.87 | 0.87 | 91 | 1012.3 |
| 20260505170042 | 47 | 0 | 1.0 | 5.0 | 0.08 | 0.87 | 0.87 | 92 | 1012.7 |
| 20260505164553 | 46 | 125 | 1.0 | 6.0 | 0.08 | 0.86 | 0.86 | 92 | 1012.7 |
| 20260505163036 | 47 | 34 | 0.0 | 5.0 | 0.03 | 0.81 | 0.81 | 92 | 1012.6 |
| 20260505161547 | 47 | 0 | 0.0 | 3.0 | 0.01 | 0.79 | 0.79 | 91 | 1013.2 |
| 20260505153045 | 48 | 32 | 0.0 | 4.0 | 0.01 | 0.78 | 0.78 | 90 | 1012.5 |
| 20260505151535 | 48 | 25 | 2.0 | 5.0 | 0.03 | 0.78 | 0.78 | 91 | 1012.0 |
| 20260505124555 | 49 | 37 | 0.0 | 3.0 | 0.01 | 0.67 | 0.67 | 87 | 1009.8 |
| 20260505123044 | 48 | 67 | 1.0 | 3.0 | 0.01 | 0.67 | 0.67 | 86 | 1009.5 |
| 20260505121542 | 49 | 25 | 0.0 | 3.0 | 0.01 | 0.66 | 0.66 | 83 | 1009.7 |
| 20260505120049 | 49 | 135 | 1.0 | 5.0 | 0.01 | 0.66 | 0.66 | 84 | 1009.5 |
| 20260505114542 | 48 | 34 | 1.0 | 3.0 | 0.01 | 0.66 | 0.66 | 87 | 1009.1 |
| 20260505113035 | 48 | 0 | 0.0 | 1.0 | 0.02 | 0.66 | 0.66 | 89 | 1009.8 |
| 20260505111535 | 48 | 260 | 0.0 | 2.0 | 0.01 | 0.65 | 0.65 | 89 | 1009.3 |
| 20260505101536 | 49 | 29 | 2.0 | 5.0 | 0.00 | 0.64 | 0.64 | 85 | 1009.1 |
| 20260505100036 | 49 | 26 | 1.0 | 7.0 | 0.00 | 0.64 | 0.64 | 85 | 1009.1 |
| 20260505094542 | 48 | 17 | 3.0 | 7.0 | 0.00 | 0.64 | 0.64 | 85 | 1008.9 |
| 20260505093043 | 48 | 22 | 1.0 | 5.0 | 0.00 | 0.64 | 0.64 | 87 | 1008.9 |
| 20260505091540 | 48 | 37 | 2.0 | 7.0 | 0.01 | 0.64 | 0.64 | 87 | 1008.0 |
| 20260505090042 | 48 | 340 | 3.0 | 8.0 | 0.07 | 0.64 | 0.64 | 89 | 1008.1 |
| 20260505084544 | 48 | 29 | 3.0 | 9.0 | 0.12 | 0.64 | 0.64 | 91 | 1007.1 |
| 20260505083044 | 48 | 37 | 3.0 | 9.0 | 0.20 | 0.64 | 0.64 | 90 | 1005.7 |
| 20260505081548 | 49 | 59 | 1.0 | 5.0 | 0.25 | 0.63 | 0.63 | 90 | 1005.6 |
| 20260505080041 | 49 | 30 | 1.0 | 5.0 | 0.20 | 0.57 | 0.57 | 90 | 1008.6 |
| 20260505074542 | 50 | 39 | 1.0 | 4.0 | 0.15 | 0.51 | 0.51 | 90 | 1009.3 |
| 20260505073040 | 51 | 319 | 1.0 | 3.0 | 0.10 | 0.43 | 0.43 | 89 | 1009.4 |
| 20260505071536 | 53 | 0 | 0.0 | 6.0 | 0.15 | 0.38 | 0.38 | 89 | 1008.7 |
| 20260505070043 | 54 | 41 | 2.0 | 6.0 | 0.34 | 0.37 | 0.37 | 87 | 1007.0 |
| 20260505064543 | 55 | 352 | 0.0 | 5.0 | 0.36 | 0.36 | 0.36 | 89 | 1007.8 |
| 20260505063042 | 56 | 0 | 0.0 | 4.0 | 0.33 | 0.33 | 0.33 | 90 | 1006.6 |
| 20260505061535 | 57 | 0 | 0.0 | 2.0 | 0.22 | 0.22 | 0.22 | 88 | 1006.5 |
| 20260505060038 | 60 | 330 | 1.0 | 6.0 | 0.03 | 0.03 | 0.03 | 80 | 1005.5 |
| 20260505054547 | 63 | 103 | 5.0 | 9.0 | 0.00 | 0.00 | 0.00 | 68 | 1005.1 |
| 20260505053059 | 66 | 27 | 6.0 | 11.0 | 0.00 | 0.00 | 0.00 | 56 | 1004.9 |
| 20260505051541 | 69 | 48 | 2.0 | 8.0 | 0.00 | 0.00 | 0.00 | 61 | 1004.5 |
| 20260505041545 | 70 | 157 | 0.0 | 7.0 | 0.00 | 0.00 | 0.00 | 76 | 1003.4 |
| 20260505040045 | 70 | 96 | 0.0 | 3.0 | 0.00 | 0.00 | 0.00 | 75 | 1003.7 |
| 20260505034549 | 71 | 0 | 0.0 | 5.0 | 0.00 | 0.00 | 0.00 | 75 | 1003.7 |
| 20260505033042 | 71 | 0 | 0.0 | 6.0 | 0.00 | 0.00 | 0.00 | 74 | 1003.7 |
| 20260505031544 | 71 | 146 | 1.0 | 5.0 | 0.00 | 0.00 | 0.00 | 74 | 1003.6 |
| 20260505030041 | 71 | 165 | 0.0 | 2.0 | 0.00 | 0.00 | 0.00 | 74 | 1003.5 |
| 20260505024540 | 71 | 175 | 0.0 | 4.0 | 0.00 | 0.00 | 0.00 | 73 | 1003.3 |
| 20260505023047 | 70 | 0 | 0.0 | 1.0 | 0.00 | 0.00 | 0.00 | 73 | 1003.0 |
| 20260505021539 | 70 | 0 | 0.0 | 0.0 | 0.00 | 0.00 | 0.00 | 74 | 1002.8 |
| 20260505020036 | 70 | 0 | 0.0 | 0.0 | 0.00 | 0.00 | 0.00 | 73 | 1002.7 |
| 20260505014536 | 71 | 0 | 0.0 | 0.0 | 0.00 | 0.00 | 0.00 | 71 | 1002.5 |
| 20260505013041 | 72 | 0 | 0.0 | 0.0 | 0.00 | 0.00 | 0.00 | 69 | 1002.3 |
| 20260505011602 | 74 | 0 | 0.0 | 0.0 | 0.00 | 0.00 | 0.00 | 65 | 1002.1 |
| 20260505010043 | 76 | 0 | 0.0 | 0.0 | 0.00 | 0.00 | 0.00 | 61 | 1001.8 |
| 20260505004536 | 78 | 0 | 0.0 | 0.0 | 0.00 | 0.00 | 0.00 | 58 | 1001.6 |
| 20260505003034 | 79 | 0 | 0.0 | 1.0 | 0.00 | 0.00 | 0.00 | 57 | 1001.4 |
| 20260505001543 | 79 | 160 | 0.0 | 1.0 | 0.00 | 0.00 | 0.00 | 56 | 1001.4 |
| 20260505000058 | 80 | 0 | 0.0 | 3.0 | 0.00 | 0.00 | 0.00 | 55 | 1001.5 |
| 20260504234540 | 80 | 0 | 0.0 | 3.0 | 0.00 | 0.00 | 0.00 | 53 | 1001.4 |
| 20260504233045 | 81 | 146 | 1.0 | 5.0 | 0.00 | 0.00 | 0.00 | 51 | 1001.5 |
| 20260504231536 | 83 | 214 | 1.0 | 6.0 | 0.00 | 0.00 | 0.00 | 49 | 1001.5 |
| 20260504230035 | 84 | 120 | 2.0 | 6.0 | 0.00 | 0.00 | 0.00 | 48 | 1001.5 |
| 20260504224538 | 84 | 122 | 0.0 | 6.0 | 0.00 | 0.00 | 0.00 | 49 | 1001.5 |
| 20260504223034 | 84 | 239 | 2.0 | 4.0 | 0.00 | 0.00 | 0.00 | 48 | 1001.5 |
| 20260504221539 | 82 | 142 | 1.0 | 6.0 | 0.00 | 0.00 | 0.00 | 50 | 1001.6 |
| 20260504220036 | 81 | 0 | 1.0 | 6.0 | 0.00 | 0.00 | 0.00 | 51 | 1001.7 |
| 20260504214534 | 82 | 295 | 1.0 | 6.0 | 0.00 | 0.00 | 0.00 | 50 | 1001.9 |
| 20260504213037 | 81 | 180 | 1.0 | 4.0 | 0.00 | 0.00 | 0.00 | 51 | 1002.0 |
| 20260504211533 | 81 | 251 | 2.0 | 6.0 | 0.00 | 0.00 | 0.00 | 50 | 1002.1 |
| 20260504210037 | 82 | 235 | 2.0 | 8.0 | 0.00 | 0.00 | 0.00 | 48 | 1002.2 |